Time,TemperatureF,DewpointF,PressureIn,WindDirection,WindDirectionDegrees,WindSpeedMPH,WindSpeedGustMPH,Humidity,HourlyPrecipIn,Conditions,Clouds,dailyrainin,SolarRadiationWatts/m^2,SoftwareType,DateUTC
2013-01-06 14:22:00,34.0,18.0,-100.00,SSW,194,11.0,20.0,51,0.00,,,0.00,195.000000,,2013-01-06 21:22:00,
2013-01-06 14:33:00,34.0,18.0,-100.00,SSW,194,11.0,20.0,51,0.00,,,0.00,195.000000,,2013-01-06 21:33:00,
2013-01-06 14:42:00,34.0,18.0,-100.00,SSW,194,11.0,20.0,51,0.00,,,0.00,195.000000,,2013-01-06 21:42:00,
2013-01-06 14:52:00,34.0,18.0,-100.00,SSW,194,11.0,20.0,51,0.00,,,0.00,195.000000,,2013-01-06 21:52:00,
2013-01-06 15:12:00,35.0,16.0,-100.00,SSW,210,14.0,21.0,46,0.00,,,0.00,378.000000,,2013-01-06 22:12:00,
2013-01-06 15:22:00,35.0,16.0,-100.00,SSW,210,14.0,21.0,46,0.00,,,0.00,378.000000,,2013-01-06 22:22:00,
2013-01-06 15:33:00,35.0,16.0,-100.00,SSW,210,14.0,21.0,46,0.00,,,0.00,378.000000,,2013-01-06 22:33:00,
2013-01-06 15:42:00,35.0,16.0,-100.00,SSW,210,14.0,21.0,46,0.00,,,0.00,378.000000,,2013-01-06 22:42:00,
2013-01-06 15:52:00,35.0,16.0,-100.00,SSW,210,14.0,21.0,46,0.00,,,0.00,378.000000,,2013-01-06 22:52:00,
2013-01-06 16:12:00,32.0,15.0,-100.00,SSW,211,10.0,22.0,50,0.00,,,0.00,209.000000,,2013-01-06 23:12:00,
2013-01-06 16:22:00,32.0,15.0,-100.00,SSW,211,10.0,22.0,50,0.00,,,0.00,209.000000,,2013-01-06 23:22:00,
2013-01-06 16:32:00,32.0,15.0,-100.00,SSW,211,10.0,22.0,50,0.00,,,0.00,209.000000,,2013-01-06 23:32:00,
2013-01-06 16:42:00,32.0,15.0,-100.00,SSW,211,10.0,22.0,50,0.00,,,0.00,209.000000,,2013-01-06 23:42:00,
2013-01-06 16:52:00,32.0,15.0,-100.00,SSW,211,10.0,22.0,50,0.00,,,0.00,209.000000,,2013-01-06 23:52:00,
2013-01-06 17:22:00,30.0,17.0,-100.00,SSW,203,5.0,20.0,58,0.00,,,0.00,86.000000,,2013-01-07 00:22:00,
2013-01-06 17:32:00,30.0,17.0,-100.00,SSW,203,5.0,20.0,58,0.00,,,0.00,86.000000,,2013-01-07 00:32:00,
2013-01-06 17:42:00,30.0,17.0,-100.00,SSW,203,5.0,20.0,58,0.00,,,0.00,86.000000,,2013-01-07 00:42:00,
2013-01-06 17:52:00,30.0,17.0,-100.00,SSW,203,5.0,20.0,58,0.00,,,0.00,86.000000,,2013-01-07 00:52:00,
2013-01-06 18:22:00,30.0,14.0,-100.00,WSW,244,6.0,18.0,51,0.00,,,0.00,1.000000,,2013-01-07 01:22:00,
2013-01-06 18:32:00,30.0,14.0,-100.00,WSW,244,6.0,18.0,51,0.00,,,0.00,1.000000,,2013-01-07 01:32:00,
2013-01-06 18:42:00,30.0,14.0,-100.00,WSW,244,6.0,18.0,51,0.00,,,0.00,1.000000,,2013-01-07 01:42:00,
2013-01-06 18:52:00,30.0,14.0,-100.00,WSW,244,6.0,18.0,51,0.00,,,0.00,1.000000,,2013-01-07 01:52:00,
2013-01-06 19:22:00,29.0,14.0,-100.00,SW,223,3.0,13.0,52,0.00,,,0.00,0.000000,,2013-01-07 02:22:00,
2013-01-06 19:32:00,29.0,14.0,-100.00,SW,223,3.0,13.0,52,0.00,,,0.00,0.000000,,2013-01-07 02:32:00,
2013-01-06 19:42:00,29.0,14.0,-100.00,SW,223,3.0,13.0,52,0.00,,,0.00,0.000000,,2013-01-07 02:42:00,
2013-01-06 19:52:00,29.0,14.0,-100.00,SW,223,3.0,13.0,52,0.00,,,0.00,0.000000,,2013-01-07 02:52:00,
2013-01-06 20:22:00,30.0,13.0,-100.00,SW,233,13.0,17.0,49,0.00,,,0.00,0.000000,,2013-01-07 03:22:00,
2013-01-06 20:32:00,30.0,13.0,-100.00,SW,233,13.0,17.0,49,0.00,,,0.00,0.000000,,2013-01-07 03:32:00,
2013-01-06 20:42:00,30.0,13.0,-100.00,SW,233,13.0,17.0,49,0.00,,,0.00,0.000000,,2013-01-07 03:42:00,
2013-01-06 20:52:00,30.0,13.0,-100.00,SW,233,13.0,17.0,49,0.00,,,0.00,0.000000,,2013-01-07 03:52:00,
2013-01-06 21:12:00,27.0,11.0,-100.00,WSW,245,9.0,23.0,50,0.00,,,0.00,0.000000,,2013-01-07 04:12:00,
2013-01-06 21:22:00,27.0,11.0,-100.00,WSW,245,9.0,23.0,50,0.00,,,0.00,0.000000,,2013-01-07 04:22:00,
2013-01-06 21:32:00,27.0,11.0,-100.00,WSW,245,9.0,23.0,50,0.00,,,0.00,0.000000,,2013-01-07 04:32:00,
2013-01-06 21:42:00,27.0,11.0,-100.00,WSW,245,9.0,23.0,50,0.00,,,0.00,0.000000,,2013-01-07 04:42:00,
2013-01-06 21:52:00,27.0,11.0,-100.00,WSW,245,9.0,23.0,50,0.00,,,0.00,0.000000,,2013-01-07 04:52:00,
2013-01-06 22:12:00,28.0,14.0,-100.00,SW,226,13.0,23.0,54,0.00,,,0.00,0.000000,,2013-01-07 05:12:00,
2013-01-06 22:22:00,28.0,14.0,-100.00,SW,226,13.0,23.0,54,0.00,,,0.00,0.000000,,2013-01-07 05:22:00,
2013-01-06 22:32:00,28.0,14.0,-100.00,SW,226,13.0,23.0,54,0.00,,,0.00,0.000000,,2013-01-07 05:32:00,
2013-01-06 22:42:00,28.0,14.0,-100.00,SW,226,13.0,23.0,54,0.00,,,0.00,0.000000,,2013-01-07 05:42:00,
2013-01-06 22:52:00,28.0,14.0,-100.00,SW,226,13.0,23.0,54,0.00,,,0.00,0.000000,,2013-01-07 05:52:00,
2013-01-06 23:12:00,28.0,12.0,-100.00,SW,226,12.0,23.0,51,0.00,,,0.00,0.000000,,2013-01-07 06:12:00,
2013-01-06 23:22:00,28.0,12.0,-100.00,SW,226,12.0,23.0,51,0.00,,,0.00,0.000000,,2013-01-07 06:22:00,
2013-01-06 23:32:00,28.0,12.0,-100.00,SW,226,12.0,23.0,51,0.00,,,0.00,0.000000,,2013-01-07 06:32:00,
2013-01-06 23:42:00,28.0,12.0,-100.00,SW,226,12.0,23.0,51,0.00,,,0.00,0.000000,,2013-01-07 06:42:00,
2013-01-06 23:52:00,28.0,12.0,-100.00,SW,226,12.0,23.0,51,0.00,,,0.00,0.000000,,2013-01-07 06:52:00,